Location: Columbia
(38.9520°N, 92.3340°W)
Time: 21:49:12
(UTC-05:00)

CZ-2C R/B - Visible Passes

Search period start: 27 May 2017 00:00
Search period end: 06 June 2017 00:00
Orbit: 705 x 907 km, 98.2° (Epoch: 27 May)

Date Brightness Start Highest point End Pass type
(mag) Time Alt. Az. Time Alt. Az. Time Alt. Az.
27 May 3.6 01:04:21 53° WNW 01:04:21 53° WNW 01:09:12 10° NNW visible
27 May 5.4 22:58:09 10° ENE 23:00:00 12° ENE 23:01:55 10° NE visible
28 May 3.2 00:39:13 78° N 00:39:13 78° N 00:44:32 10° NNW visible
28 May 5.5 02:20:17 11° WNW 02:20:17 11° WNW 02:21:01 10° WNW visible
29 May 3.6 00:14:05 52° ENE 00:14:11 52° ENE 00:19:41 10° N visible
29 May 5.0 01:55:09 19° W 01:55:09 19° W 01:58:21 10° NW visible
29 May 4.3 23:48:57 31° E 23:49:36 32° ENE 23:54:34 10° N visible
30 May 4.3 01:30:01 32° W 01:30:01 32° W 01:34:25 10° NNW visible
30 May 4.9 23:23:49 19° E 23:25:07 20° ENE 23:29:09 10° NNE visible
31 May 3.6 01:04:53 54° W 01:04:53 54° W 01:10:02 10° NNW visible
31 May 5.4 22:58:42 10° E 23:00:44 13° ENE 23:03:01 10° NE visible
01 Jun 3.2 00:39:46 86° NNE 00:39:46 86° NNE 00:45:23 10° NNW visible
01 Jun 5.5 02:20:49 11° W 02:20:49 11° W 02:21:44 10° WNW visible
02 Jun 3.5 00:14:38 53° E 00:14:56 54° ENE 00:20:32 10° N visible
02 Jun 5.0 01:55:42 19° W 01:55:42 19° W 01:59:09 10° NW visible
02 Jun 4.3 23:49:31 32° E 23:50:21 33° ENE 23:55:26 10° N visible
03 Jun 4.3 01:30:35 32° W 01:30:35 32° W 01:35:14 10° NNW visible
03 Jun 4.9 23:24:24 19° E 23:25:52 21° ENE 23:30:03 10° NNE visible
04 Jun 3.6 01:05:28 54° W 01:05:28 54° W 01:10:52 10° NNW visible
04 Jun 5.4 22:59:17 11° E 23:01:28 13° ENE 23:04:03 10° NNE visible
05 Jun 3.1 00:40:21 88° S 00:40:24 90° W 00:46:14 10° NNW visible
05 Jun 5.5 02:21:25 11° W 02:21:25 11° W 02:22:25 10° WNW visible
